Location: Bacharowice
(49.9333°N, 19.5833°E)
Time: 03:44:29
(UTC+00:00)

ALOS 2 - Pass Details

Date: 11 May 2021
Orbit: 630 x 632 km, 97.9° (Epoch: 22 June)

Event Time Altitude Azimuth Distance (km) Brightness Sun altitude
Exits shadow 21:03:47 21° 98° (E) 1,409 4.1 -18.8°
Maximum altitude 21:05:25 27° 64° (ENE) 1,219 4.1 -18.9°
Drops below altitude 10° 21:09:08 10° 7° (N) 2,027 6.1 -19.2°
Sets 21:11:34 0° 355° (N) 2,940 7.4 -19.3°
